Погода в Берёзовке

Россия / Республика Крым     45°34′39″N   33°20′38″E
темп.,
°C
ветер,
м/с
пор.,
м/с
влажн.,
%
обл.,
%
осадки,
мм/ч
давл.,
гПа
погр.,
м
18 апреля, вс
вс1800:00+6св3572100 0.0 101886
03:00+6всв346699 0.0 101879
06:00+6св476392 0.0 1018192
09:00+10всв576090 0.0 1017518
12:00+14в435499 0.0 10171054
15:00+16ююв324892 0.0 10161488
18:00+12ююз126997 0.0 1016137
21:00+11всв3682100 0.0 1017245
19 апреля, пн
пн1900:00+10в2383100 0.0 1017142
03:00+10св2384100 0.0 1016106
06:00+9св3587100 0.0 1015208
09:00+12в568195 0.0 1015543
12:00+12в5681100 0.0 1014509
15:00+14в5571100 0.0 10131007
18:00+13в6776100 0.0 1012647
21:00+10в4885100 0.1 1011330
20 апреля, вт
вт2000:00+10всв61196100 1.7 1007349
03:00+10вюв4798100 7.3 1005325
06:00+10ю81497100 2.5 1001736
09:00+10ююз81395100 2.7 1000739
12:00+11ююз121680100 0.1 10001232
15:00+10юз91292100 0.3 998715
18:00+9зсз111492100 0.4 1002916
21:00+9зсз91389100 0.8 1009939
21 апреля, ср
ср2100:00+10з71377100 0.0 1012577
03:00+8юз499172 0.1 1014183
06:00+7зсз369048 0.0 101593
09:00+12з346142 0.0 1018569
12:00+15юз444937 0.1 10181760
15:00+15юз65505 0.2 10191434
18:00+13юз5664100 0.0 1019595
21:00+9ююз348988 0.0 102168
22 апреля, чт
чт2200:00+8ю349199 0.0 102168
03:00+8ю3692100 0.0 102193
06:00+8ю359499 0.0 1021104
09:00+12ююз557394 0.0 1022527
12:00+15ююз556129 1.3 10231060
15:00+15юз555923 2.1 10231029
18:00+13юз456725 0.1 1023563
21:00+9ююз33860 0.0 102436